Powrót do katalogu

DMSP 5D-2 F13 DEB

AktywnySSO
NORAD 42323·DEBRIS·🇺🇸 United States

Wystrzelony Mar 24, 1995 z Vandenberg Space Force Base

Loading…

Następne Przeloty (najbliższe 24 godziny)

TLE

ŚwieżeSource: Space-Track

Epoka: Sep 14, 2026, 00:03 UTC

1 42323U 95015JR  26257.00212431  .00000250  00000-0  14458-3 0  9991
2 42323  98.8221 271.9771 0003921 118.4302 241.7269 14.17680371565278

Śledź DMSP 5D-2 F13 DEB w czasie rzeczywistym z AllMySat

Download on the App Store